Location: Casteau
(50.5142°N, 4.0161°E)
Time: 20:43:34
(UTC+00:00)

Tiros 1 - Pass Details

Date: 01 August 2021
Orbit: 630 x 663 km, 48.4° (Epoch: 28 September)

Event Time Altitude Azimuth Distance (km) Brightness Sun altitude
Rises 00:25:02 0° 278° (W) 2,954 10.5 -21.1°
Enters shadow 00:27:02 - 265° (W) 2,349 9.9 -21.0°
Reaches altitude 10° 00:28:22 10° 253° (WSW) 2,032 - -21.0°
Maximum altitude 00:30:48 14° 222° (SW) 1,762 - -20.9°
Drops below altitude 10° 00:33:13 10° 190° (S) 2,016 - -20.8°
Sets 00:36:31 0° 166° (SSE) 2,914 - -20.7°
